STARLINK-1327, 45555

Orbit data source: Space-Track

STARLINK-1327, 45555 is a payload satellite owned by SpaceX/Seattle (US) in LEO that was launched on Wed, 22 Apr 2020 UTC via an FALCON 9 launch vehicle from the Air Force Eastern Test Range (AFETR). Payload-class satellites include a variety of spacecraft equipped with specific instruments for various scientific and technological missions. These include communications satellites like Starlink; space stations such as the ISS; scientific satellites like the Hubble; Earth observation satellites from companies like Planet Labs, Umbra, and HawkEye 360; GPS; miniature CubeSats for education and research; and military/defense satellites.

Loading next visibility...
Identifier
45555, 2020-025AA
Orbit
LEO
Country
Flag of USUS
Related business
Manufacturer
SpaceX/Seattle
Mission
Operational Commercial Communications
Bus & Motor
STARLINK, Unknown motor
Mass
260 kg wet, ~248 kg dry
Launch date (UTC)
2020-04-22 (5 years ago)
Launch vehicle
FALCON 9
Launch site
Air Force Eastern Test Range (AFETR)
Object type
Payload
Rocket body
Debris
Shape & HBR
Box + 1 Pan, 4.4 m
Radar Cross Section
13.562 m², Large (>1 m²)

Expand to show TLE details & history
Last TLE update: 1 day ago

TLE from 1 day ago
0 STARLINK-1327
1 45555U 20025AA  25258.97852983  .00011019  00000-0  75743-3 0  9997
2 45555  53.0543 150.9265 0001803  93.7340 266.3855 15.06403524299030
Epoch: 2025-09-15T23:29Z
TLE epoch observation values (Epoch: 2025-09-15T23:29:04.977Z)
Latitude
-0.00003°
Longitude
163.48031°
Altitude
548.159 km
Speed
7.589 km/s
True Right ascension
10h 03m 42s
True Declination
0° 00' 00"
Sunlit
Object was in daylight at epoch
Visualization orbit readout
Latitude
Unknown
Longitude
Unknown
Altitude
Unknown
Speed
Unknown
Apparent Right ascension
Unknown
Apparent Declination
Unknown
Sunlit
N/A
Visualization observer readout
Local Sidereal Time
22:17:17
Azimuth
Unknown
Elevation
Unknown
Doppler factor
Unknown
Orbital elements
Apogee altitude
548.72 km
Perigee altitude
546.223 km
Semi-major axis
6,925.609 km
Eccentricity
0.00018
Inclination
53.0543°
RAAN
150.9265°
Arg. of periapsis
93.734°
True anomaly
266.36488°
Mean anomaly
266.3855°
Eccentric anomaly
266.37519°
Mean motion
3.76579 °/min
Orbital period
95.6 mins
BSTAR
0.00075743
Loading maneuver chart data...
Computing Atmospheric mass density...
Loading historical data...
Loading historical data...
Loading historical data...
Loading historical data...
Loading historical data...
Loading historical data...
Loading historical data...

Documentation

Showing up to 5 results
|